HVN115 VVTS-VVNB

Flight info

Callsign HVN115
Flight time N/A
Altitude 35000
Route PATMA5P PATMA Q2 BIVIM BISON3E
Aircraft A20N/M-SDE2E3FGHIRWXY/LB1

Departure

Time 2026-05-04 08:50
Airport Tan Son Nhat International Airport (VVTS)

Arrival

Time N/A
Airport Noi Bai International Airport (VVNB)
Time Latitude Longitude Altitude Speed Heading
2026-05-04 08:35 10.81601 106.66154 36 ft 0 kts 95°
2026-05-04 08:40 10.81595 106.66058 34 ft 2 kts 60°
2026-05-04 08:40 10.81584 106.66046 45 ft 2 kts 26°
2026-05-04 08:40 10.81573 106.66041 41 ft 1 kts
2026-05-04 08:41 10.81571 106.66041 43 ft 0 kts
2026-05-04 08:43 10.81582 106.66043 50 ft 3 kts
2026-05-04 08:44 10.81619 106.66047 28 ft 7 kts
2026-05-04 08:44 10.81679 106.66054 36 ft 11 kts
2026-05-04 08:46 10.82089 106.66677 36 ft 22 kts 70°
2026-05-04 08:46 10.82125 106.66778 35 ft 15 kts 70°
2026-05-04 08:46 10.82168 106.66887 36 ft 18 kts 68°
2026-05-04 08:46 10.82181 106.66919 34 ft 4 kts 68°
2026-05-04 08:47 10.82195 106.66956 37 ft 7 kts 69°
2026-05-04 08:47 10.82223 106.67006 37 ft 9 kts 33°
2026-05-04 08:47 10.82287 106.66997 37 ft 11 kts 337°
2026-05-04 08:47 10.82335 106.66963 38 ft 6 kts 322°
2026-05-04 08:48 10.82368 106.66927 38 ft 6 kts 277°
2026-05-04 08:48 10.82351 106.66891 38 ft 7 kts 248°
2026-05-04 08:48 10.82350 106.66888 35 ft 0 kts 248°
2026-05-04 08:50 10.80638 106.62244 1425 ft 170 kts 247°
2026-05-04 08:50 10.80208 106.61112 2142 ft 177 kts 247°
2026-05-04 08:51 10.79766 106.59894 2540 ft 194 kts 248°
2026-05-04 08:51 10.79523 106.58485 2974 ft 215 kts 277°
2026-05-04 08:51 10.80115 106.57021 3365 ft 237 kts 311°
2026-05-04 08:51 10.81462 106.56015 3885 ft 255 kts 341°
2026-05-04 08:52 10.83260 106.55731 4466 ft 270 kts
2026-05-04 08:52 10.85152 106.55869 5349 ft 273 kts
2026-05-04 08:52 10.87052 106.56097 6277 ft 277 kts 10°
2026-05-04 08:52 10.88976 106.56348 7142 ft 280 kts 10°
2026-05-04 08:53 10.90923 106.56606 7990 ft 284 kts 10°
2026-05-04 08:54 11.03516 106.63754 11876 ft 350 kts 53°
2026-05-04 08:55 11.04996 106.65737 12650 ft 352 kts 53°
2026-05-04 08:55 11.06494 106.67738 13288 ft 359 kts 53°
2026-05-04 08:55 11.08030 106.69770 13900 ft 364 kts 53°
2026-05-04 08:55 11.09591 106.71816 14523 ft 368 kts 52°
2026-05-04 08:57 11.20972 106.86658 18517 ft 393 kts 53°
2026-05-04 09:01 11.48846 107.15955 24654 ft 436 kts 38°
2026-05-04 09:01 11.51286 107.17821 24998 ft 439 kts 37°
2026-05-04 09:01 11.53737 107.19695 25337 ft 441 kts 37°
2026-05-04 09:01 11.56201 107.21578 25671 ft 444 kts 37°
2026-05-04 09:02 11.58655 107.23455 25982 ft 447 kts 37°
2026-05-04 09:02 11.61149 107.25363 26302 ft 450 kts 37°
2026-05-04 09:02 11.63660 107.27283 26607 ft 453 kts 37°
2026-05-04 09:02 11.66187 107.29216 26915 ft 455 kts 37°
2026-05-04 09:03 11.68727 107.31161 27237 ft 457 kts 37°
2026-05-04 09:03 11.71285 107.33118 27560 ft 459 kts 37°
2026-05-04 09:03 11.73851 107.35083 27849 ft 462 kts 37°
2026-05-04 09:03 11.76424 107.37054 28143 ft 464 kts 37°
2026-05-04 09:04 11.79012 107.39036 28427 ft 466 kts 37°
2026-05-04 09:04 11.81612 107.41028 28714 ft 468 kts 37°
2026-05-04 09:04 11.84188 107.43001 28984 ft 470 kts 37°
2026-05-04 09:04 11.86805 107.45008 29257 ft 472 kts 37°
2026-05-04 09:05 11.89438 107.47027 29521 ft 474 kts 37°
2026-05-04 09:05 11.92079 107.49053 29793 ft 476 kts 37°
2026-05-04 09:05 11.94736 107.51091 30031 ft 478 kts 37°
2026-05-04 09:05 11.97401 107.53136 30263 ft 480 kts 37°
2026-05-04 09:06 12.00075 107.55189 30517 ft 481 kts 37°
2026-05-04 09:07 12.18844 107.69612 32648 ft 481 kts 36°
2026-05-04 09:08 12.21516 107.71667 32961 ft 480 kts 36°
2026-05-04 09:08 12.24184 107.73720 33271 ft 479 kts 36°
2026-05-04 09:08 12.26845 107.75768 33574 ft 478 kts 36°
2026-05-04 09:08 12.29507 107.77806 33852 ft 478 kts 34°
2026-05-04 09:09 12.32376 107.79505 34109 ft 475 kts 22°
2026-05-04 09:09 12.35482 107.80612 34321 ft 472 kts 11°
2026-05-04 09:09 12.38716 107.81101 34560 ft 469 kts
2026-05-04 09:09 12.41965 107.81169 34776 ft 467 kts 359°
2026-05-04 09:10 12.45165 107.81229 34847 ft 465 kts 359°
2026-05-04 09:10 12.51632 107.81358 34851 ft 464 kts 359°
2026-05-04 09:11 12.58088 107.81486 34848 ft 463 kts 359°
2026-05-04 09:11 12.64528 107.81612 34845 ft 463 kts 359°
2026-05-04 09:12 12.69446 107.81709 34839 ft 463 kts 359°
2026-05-04 09:14 12.88644 107.82087 34829 ft 461 kts 359°
2026-05-04 09:14 12.95055 107.82214 34821 ft 461 kts 359°
2026-05-04 09:15 13.01461 107.82341 34822 ft 460 kts 359°
2026-05-04 09:15 13.07869 107.82468 34824 ft 460 kts 359°
2026-05-04 09:17 13.36697 107.83042 34821 ft 462 kts 359°
2026-05-04 09:18 13.43132 107.83177 34825 ft 463 kts 359°
2026-05-04 09:18 13.49577 107.83312 34829 ft 464 kts 359°
2026-05-04 09:19 13.56038 107.83446 34837 ft 464 kts 359°
2026-05-04 09:19 13.62470 107.83580 34843 ft 465 kts 359°
2026-05-04 09:20 13.68953 107.83715 34852 ft 466 kts 359°
2026-05-04 09:20 13.75447 107.83851 34858 ft 467 kts 359°
2026-05-04 09:21 13.81951 107.83987 34856 ft 468 kts 359°
2026-05-04 09:21 13.88432 107.84122 34860 ft 468 kts 359°
2026-05-04 09:22 13.94955 107.84258 34873 ft 468 kts 359°
2026-05-04 09:22 14.01489 107.84390 34873 ft 468 kts 358°
2026-05-04 09:23 14.07978 107.84391 34873 ft 468 kts 357°
2026-05-04 09:23 14.14498 107.84368 34872 ft 468 kts 357°
2026-05-04 09:25 14.40519 107.84362 34887 ft 468 kts 358°
2026-05-04 09:26 14.47029 107.84362 34893 ft 467 kts 358°
2026-05-04 09:26 14.53544 107.84362 34896 ft 467 kts 358°
2026-05-04 09:27 14.60051 107.84361 34899 ft 466 kts 358°
2026-05-04 09:27 14.66538 107.84361 34907 ft 466 kts 358°
2026-05-04 09:28 14.72987 107.84361 34918 ft 466 kts 358°
2026-05-04 09:28 14.79475 107.84361 34930 ft 466 kts 358°
2026-05-04 09:29 14.85968 107.84361 34944 ft 466 kts 358°
2026-05-04 09:29 14.92457 107.84459 34950 ft 467 kts
2026-05-04 09:30 14.98953 107.84750 34961 ft 467 kts
2026-05-04 09:30 15.05410 107.85020 34967 ft 467 kts
2026-05-04 09:31 15.11917 107.85272 34971 ft 467 kts
2026-05-04 09:31 15.18414 107.85518 34969 ft 467 kts
2026-05-04 09:32 15.24918 107.85765 34970 ft 468 kts
2026-05-04 09:34 15.50957 107.86757 34954 ft 469 kts
2026-05-04 09:34 15.57487 107.87006 34950 ft 470 kts
2026-05-04 09:35 15.64021 107.87255 34950 ft 470 kts
2026-05-04 09:35 15.70573 107.87505 34950 ft 471 kts
2026-05-04 09:37 15.96681 107.87692 34955 ft 466 kts 345°
2026-05-04 09:38 16.02759 107.85430 34952 ft 463 kts 332°
2026-05-04 09:38 16.08570 107.82564 34952 ft 461 kts 333°
2026-05-04 09:39 16.14392 107.79709 34956 ft 463 kts 333°
2026-05-04 09:39 16.20215 107.76846 34943 ft 462 kts 333°
2026-05-04 09:40 16.25976 107.74011 34941 ft 460 kts 332°
2026-05-04 09:40 16.31766 107.71158 34938 ft 459 kts 332°
2026-05-04 09:42 16.54803 107.59804 34941 ft 457 kts 332°
2026-05-04 09:43 16.60550 107.56984 34939 ft 456 kts 332°
2026-05-04 09:43 16.66283 107.54167 34938 ft 455 kts 332°
2026-05-04 09:44 16.72012 107.51350 34943 ft 454 kts 332°
2026-05-04 09:46 16.94819 107.40120 34938 ft 453 kts 332°
2026-05-04 09:46 17.00520 107.37314 34939 ft 453 kts 332°
2026-05-04 09:47 17.06207 107.34488 34936 ft 452 kts 332°
2026-05-04 09:49 17.28857 107.23067 34941 ft 453 kts 332°
2026-05-04 09:51 17.48785 107.13001 34957 ft 455 kts 332°
2026-05-04 09:51 17.54469 107.10126 34962 ft 455 kts 332°
2026-05-04 09:52 17.60184 107.07233 34967 ft 455 kts 332°
2026-05-04 09:52 17.65895 107.04339 34967 ft 456 kts 332°
2026-05-04 09:53 17.71575 107.01461 34969 ft 456 kts 331°
2026-05-04 09:53 17.77318 106.98547 34974 ft 455 kts 331°
2026-05-04 09:54 17.82989 106.95669 34980 ft 455 kts 331°
2026-05-04 09:54 17.88693 106.92771 34982 ft 455 kts 331°
2026-05-04 09:55 17.94403 106.89890 34986 ft 455 kts 331°
2026-05-04 09:55 18.00103 106.87022 34986 ft 454 kts 331°
2026-05-04 09:56 18.05798 106.84152 34984 ft 453 kts 331°
2026-05-04 09:56 18.11443 106.81303 34984 ft 452 kts 331°
2026-05-04 09:57 18.17112 106.78439 34981 ft 451 kts 330°
2026-05-04 09:57 18.22771 106.75579 34979 ft 451 kts 330°
2026-05-04 09:58 18.28420 106.72722 34976 ft 450 kts 330°
2026-05-04 09:58 18.34062 106.69865 34975 ft 450 kts 330°
2026-05-04 10:00 18.56573 106.58451 34977 ft 449 kts 330°
2026-05-04 10:04 18.95174 106.38957 34995 ft 451 kts 330°
2026-05-04 10:04 19.00842 106.36107 35002 ft 451 kts 330°
2026-05-04 10:05 19.06518 106.33248 35005 ft 451 kts 330°
2026-05-04 10:05 19.12184 106.30392 35005 ft 451 kts 330°
2026-05-04 10:06 19.17846 106.27534 35010 ft 450 kts 330°
2026-05-04 10:06 19.23499 106.24678 35007 ft 450 kts 330°
2026-05-04 10:08 19.43210 106.14704 34806 ft 449 kts 330°
2026-05-04 10:08 19.46029 106.13276 34581 ft 449 kts 330°
2026-05-04 10:08 19.48850 106.11845 34359 ft 450 kts 330°
2026-05-04 10:09 19.51646 106.10427 34139 ft 451 kts 330°
2026-05-04 10:09 19.54485 106.08998 33907 ft 452 kts 331°
2026-05-04 10:09 19.57338 106.07568 33654 ft 453 kts 331°
2026-05-04 10:09 19.60191 106.06140 33394 ft 454 kts 331°
2026-05-04 10:10 19.63045 106.04710 33065 ft 454 kts 331°
2026-05-04 10:10 19.65913 106.03271 32373 ft 457 kts 331°
2026-05-04 10:10 19.68801 106.01819 31417 ft 462 kts 331°
2026-05-04 10:10 19.71713 106.00356 30660 ft 462 kts 331°
2026-05-04 10:11 19.74601 105.98906 30182 ft 455 kts 330°
2026-05-04 10:11 19.77447 105.97477 29553 ft 449 kts 330°
2026-05-04 10:11 19.80252 105.96068 28977 ft 443 kts 330°
2026-05-04 10:11 19.83015 105.94677 28400 ft 437 kts 330°
2026-05-04 10:12 19.85745 105.93302 27822 ft 432 kts 330°
2026-05-04 10:12 19.88412 105.91958 27261 ft 427 kts 330°
2026-05-04 10:12 19.91081 105.90613 26697 ft 422 kts 330°
2026-05-04 10:12 19.93726 105.89278 26113 ft 419 kts 330°
2026-05-04 10:13 19.96351 105.87954 25532 ft 416 kts 330°
2026-05-04 10:13 19.98954 105.86640 24989 ft 412 kts 330°
2026-05-04 10:13 20.01536 105.85337 24447 ft 409 kts 330°
2026-05-04 10:13 20.04102 105.84040 23902 ft 407 kts 330°
2026-05-04 10:14 20.06655 105.82750 23303 ft 404 kts 330°
2026-05-04 10:14 20.09185 105.81473 22740 ft 400 kts 330°
2026-05-04 10:16 20.26193 105.72864 18937 ft 378 kts 330°
2026-05-04 10:16 20.28572 105.71658 18394 ft 376 kts 330°
2026-05-04 10:16 20.30926 105.70464 17803 ft 374 kts 331°
2026-05-04 10:16 20.33260 105.69280 17301 ft 369 kts 331°
2026-05-04 10:17 20.35567 105.68110 16780 ft 366 kts 331°
2026-05-04 10:17 20.37857 105.66948 16255 ft 363 kts 331°
2026-05-04 10:19 20.55044 105.64063 13208 ft 360 kts 356°
2026-05-04 10:19 20.57546 105.64038 12837 ft 360 kts 356°
2026-05-04 10:19 20.60015 105.64015 12686 ft 348 kts 356°
2026-05-04 10:19 20.62385 105.63996 12538 ft 332 kts 356°
2026-05-04 10:20 20.64645 105.63979 12384 ft 317 kts 356°
2026-05-04 10:20 20.66825 105.63960 12033 ft 312 kts 356°
2026-05-04 10:20 20.68990 105.63938 11644 ft 310 kts 356°
2026-05-04 10:20 20.71135 105.63917 11210 ft 307 kts 356°
2026-05-04 10:21 20.73266 105.63897 10681 ft 304 kts 356°
2026-05-04 10:21 20.75376 105.63876 10179 ft 302 kts 356°
2026-05-04 10:21 20.77458 105.63857 9797 ft 295 kts 356°
2026-05-04 10:21 20.79490 105.63839 9504 ft 293 kts 356°
2026-05-04 10:22 20.83566 105.63801 8876 ft 289 kts 357°
2026-05-04 10:22 20.85574 105.63784 8569 ft 289 kts 357°
2026-05-04 10:22 20.87559 105.63765 8267 ft 288 kts 357°
2026-05-04 10:23 20.89551 105.63748 7958 ft 284 kts 357°
2026-05-04 10:23 20.91535 105.63730 7655 ft 287 kts 358°
2026-05-04 10:25 21.04984 105.62781 5856 ft 253 kts 342°
2026-05-04 10:25 21.06615 105.62260 5714 ft 235 kts 342°
2026-05-04 10:25 21.08129 105.61784 5574 ft 219 kts 343°
2026-05-04 10:25 21.09543 105.61340 5443 ft 205 kts 343°
2026-05-04 10:26 21.10898 105.60913 5180 ft 201 kts 343°
2026-05-04 10:26 21.12239 105.60487 4802 ft 201 kts 343°
2026-05-04 10:26 21.13558 105.60068 4451 ft 199 kts 344°
2026-05-04 10:26 21.14876 105.59646 4128 ft 197 kts 345°
2026-05-04 10:27 21.16165 105.59236 3951 ft 187 kts 345°
2026-05-04 10:27 21.17387 105.58933 3974 ft 170 kts 358°
2026-05-04 10:27 21.18510 105.59056 3882 ft 156 kts 17°
2026-05-04 10:27 21.19483 105.59460 3778 ft 147 kts 22°
2026-05-04 10:28 21.20427 105.59852 3583 ft 145 kts 21°